Weather in Sharhorod

Ukraine / Vinnytsia Region     48°45′11″N   28°04′56″E
temp.,
°C
wind,
m/s
gust,
m/s
humid.,
%
clouds,
%
prec.,
mm/h
press.,
hPa
HPBL,
m
14 april, wed
wed1400:00+10sse51169100 0.0 1015363
03:00+9sse5872100 0.0 1015337
06:00+8se4776100 0.0 1014282
09:00+9sse5769100 0.0 1014466
12:00+12sse565199 0.0 10141160
15:00+14sse5547100 0.0 10121880
18:00+12sse2452100 0.1 10121019
21:00+10sse3665100 0.1 1013254
15 april, thu
thu1500:00+9wnw2273100 0.0 101264
03:00+8nne2479100 0.1 1012164
06:00+8nnw3582100 0.3 1011197
09:00+7n3592100 2.6 1012249
12:00+9nnw3380100 2.4 1012490
15:00+11nw5570100 3.4 1011894
18:00+8nw71385100 1.8 1012664
21:00+5nw71291100 2.6 1013396
16 april, fri
fri1600:00+4nw61194100 2.2 1013457
03:00+4wnw61295100 2.2 1013497
06:00+3wnw71196100 0.7 1013662
09:00+3wnw71395100 1.3 1014580
12:00+4wnw71293100 0.1 1015672
15:00+4wnw61293100 0.2 1016827
18:00+4wnw61293100 0.0 1017696
21:00+3wnw51196100 0.0 1018574
17 april, sat
sat1700:00+3wnw51095100 0.0 1019556
03:00+3wnw5997100 0.0 1019464
06:00+3w4897100 0.1 1020471
09:00+4w4692100 0.1 1021485
12:00+7w3473100 0.0 1021881
15:00+9w2362100 0.1 10211187
18:00+9nnw0161100 0.0 1020701
21:00+7ene2271100 0.0 102144
18 april, sun
sun1800:00+7ne347648 0.0 102179
03:00+4ene228296 0.0 102118
06:00+4ene2385100 0.0 102132
09:00+8e227095 0.0 1021303
12:00+11ese1157100 0.0 10201095
15:00+12ese2151100 0.0 10201508
18:00+12ese2354100 0.0 10201226
21:00+10e3468100 0.0 102187